Location: Asheville, NC
(35.6000°N, 82.5500°W)
Time: 04:45:36
(UTC-05:00)

LilacSat-2 - Pass Details

Date: 09 January 2018
Orbit: 515 x 537 km, 97.5° (Epoch: 17 January)

Event Time Altitude Azimuth Distance (km) Brightness Sun altitude
Rises 06:43:11 0° 7° (N) 2,663 ? -11.5°
Reaches altitude 10° 06:45:19 10° 4° (N) 1,766 ? -11.1°
Maximum altitude 06:49:04 60° 284° (WNW) 600 ? -10.4°
Drops below altitude 10° 06:52:46 10° 204° (SSW) 1,741 ? -9.7°
Sets 06:54:51 0° 201° (SSW) 2,621 ? -9.3°
